Pierce, TX

2:40 PM CDT on September 27, 2016 (GMT -0500)
Wharton Regional

Weather History for KARM - November, 2012

Change the Weather History Date:

Monday, November 19, 2012

  Actual Average (KPSX) Record (KPSX)
Temperature  
Mean Temperature 60 °F -  
Max Temperature 77 °F 72 °F 82 °F (1950)
Min Temperature 44 °F 55 °F 32 °F (1959)
Degree Days  
Heating Degree Days 4    
Growing Degree Days 10 (Base 50)    
Moisture  
Dew Point 45 °F    
Average Humidity 66    
Maximum Humidity 100    
Minimum Humidity 21    
Precipitation  
Precipitation 0.00 in - - ()
Sea Level Pressure  
Sea Level Pressure 30.22 in    
Wind  
Wind Speed 2 mph (SE)    
Max Wind Speed 6 mph    
Max Gust Speed -    
Visibility 10 miles    
Events      
Averages and records for this station are not official NWS values.
T = Trace of Precipitation, MM = Missing Value Source: NWS Daily Summary

Daily Weather History Graph

Daily Weather History Graph

Search for Another Location

Airport or City:

Trip Planner

Search our weather history database for the weather conditions in past years. The results will help you decide how hot, cold, wet, or windy it might be!

Date:

Astronomy

Nov. 19, 2012 Rise Set
Actual Time 6:52 AM CST 5:28 PM CST
Civil Twilight 6:26 AM CST 5:53 PM CST
Nautical Twilight 5:57 AM CST 6:22 PM CST
Astronomical Twilight 5:29 AM CST 6:50 PM CST
Moon 12:05 PM CST (11/19) 11:43 PM CST (11/19)
Length of Visible Light 11h 26m
Length of Day
10h 35m
Waxing Crescent, 41% of the Moon is Illuminated
Nov 19
Waxing Crescent
Nov 20
First Quarter
Nov 28
Full
Dec 6
Last Quarter
Dec 13
New

Hourly Weather History & Observations

Time (CST) Temp. Windchill Dew Point Humidity Pressure Visibility Wind Dir Wind Speed Gust Speed Precip Events Conditions
12:15 AM 51.8 °F - 50.0 °F 94% 30.24 in 10.0 mi East 5.8 mph - N/A   Clear
12:35 AM 51.8 °F - 48.2 °F 88% 30.24 in 10.0 mi East 5.8 mph - N/A   Clear
12:55 AM 51.8 °F - 46.4 °F 82% 30.26 in 10.0 mi Calm Calm - N/A   Clear
1:15 AM 51.8 °F - 46.4 °F 82% 30.26 in 10.0 mi Calm Calm - N/A   Clear
1:35 AM 51.8 °F - 46.4 °F 82% 30.25 in 10.0 mi East 3.5 mph - N/A   Clear
1:55 AM 51.8 °F - 46.4 °F 82% 30.25 in 10.0 mi Calm Calm - N/A   Clear
2:15 AM 51.8 °F - 46.4 °F 82% 30.24 in 10.0 mi Calm Calm - N/A   Clear
2:35 AM 48.2 °F - 44.6 °F 87% 30.25 in 10.0 mi Calm Calm - N/A   Clear
2:55 AM 50.0 °F - 44.6 °F 82% 30.24 in 10.0 mi ENE 4.6 mph - N/A   Clear
3:15 AM 50.0 °F - 44.6 °F 82% 30.23 in 10.0 mi East 3.5 mph - N/A   Clear
3:35 AM 50.0 °F - 44.6 °F 82% 30.23 in 10.0 mi Calm Calm - N/A   Clear
3:55 AM 48.2 °F - 44.6 °F 87% 30.23 in 10.0 mi Calm Calm - N/A   Clear
4:15 AM 46.4 °F - 42.8 °F 87% 30.24 in 10.0 mi Calm Calm - N/A   Clear
4:35 AM 46.4 °F 45.2 °F 42.8 °F 87% 30.23 in 10.0 mi ENE 3.5 mph - N/A   Clear
4:55 AM 46.4 °F - 44.6 °F 93% 30.23 in 10.0 mi Calm Calm - N/A   Clear
5:15 AM 46.4 °F - 44.6 °F 93% 30.23 in 10.0 mi Calm Calm - N/A   Clear
5:35 AM 46.4 °F - 44.6 °F 93% 30.25 in 10.0 mi Calm Calm - N/A   Clear
5:55 AM 44.6 °F - 42.8 °F 93% 30.24 in 10.0 mi Calm Calm - N/A   Clear
6:15 AM 46.4 °F - 42.8 °F 87% 30.24 in 10.0 mi Calm Calm - N/A   Clear
6:35 AM 46.4 °F - 44.6 °F 93% 30.24 in 10.0 mi Calm Calm - N/A   Clear
6:55 AM 46.4 °F - 44.6 °F 93% 30.24 in 10.0 mi Calm Calm - N/A   Clear
7:35 AM 46.4 °F - 44.6 °F 93% 30.25 in 10.0 mi Calm Calm - N/A   Clear
7:55 AM 51.8 °F - 48.2 °F 88% 30.26 in 10.0 mi Calm Calm - N/A   Scattered Clouds
8:15 AM 55.4 °F - 50.0 °F 82% 30.27 in 10.0 mi Calm Calm - N/A   Clear
8:35 AM 59.0 °F - 50.0 °F 72% 30.27 in 10.0 mi ENE 3.5 mph - N/A   Clear
8:55 AM 60.8 °F - 50.0 °F 68% 30.27 in 10.0 mi ENE 3.5 mph - N/A   Clear
9:15 AM 62.6 °F - 51.8 °F 68% 30.28 in 10.0 mi East 4.6 mph - N/A   Clear
9:35 AM 64.4 °F - 51.8 °F 64% 30.28 in 10.0 mi East 4.6 mph - N/A   Clear
9:55 AM 68.0 °F - 51.8 °F 56% 30.28 in 10.0 mi ESE 4.6 mph - N/A   Clear
10:15 AM 68.0 °F - 53.6 °F 60% 30.28 in 10.0 mi SE 3.5 mph - N/A   Clear
10:35 AM 69.8 °F - 50.0 °F 49% 30.28 in 10.0 mi South 3.5 mph - N/A   Clear
10:55 AM 69.8 °F - 46.4 °F 43% 30.28 in 10.0 mi Calm Calm - N/A   Clear
11:15 AM 71.6 °F - 39.2 °F 31% 30.27 in 10.0 mi Calm Calm - N/A   Clear
11:35 AM 73.4 °F - 37.4 °F 27% 30.26 in 10.0 mi East 4.6 mph - N/A   Clear
11:55 AM 73.4 °F - 33.8 °F 23% 30.25 in 10.0 mi South 4.6 mph - N/A   Clear
12:15 PM 73.4 °F - 35.6 °F 25% 30.24 in 10.0 mi SSE 3.5 mph - N/A   Clear
12:35 PM 73.4 °F - 32.0 °F 22% 30.22 in 10.0 mi SSE 4.6 mph - N/A   Clear
12:55 PM 75.2 °F - 32.0 °F 21% 30.21 in 10.0 mi Calm Calm - N/A   Clear
1:15 PM 75.2 °F - 33.8 °F 22% 30.21 in 10.0 mi ENE 3.5 mph - N/A   Clear
1:35 PM 73.4 °F - 33.8 °F 23% 30.20 in 10.0 mi Calm Calm - N/A   Clear
1:55 PM 77.0 °F - 35.6 °F 22% 30.19 in 10.0 mi SSE 4.6 mph - N/A   Clear
2:15 PM 75.2 °F - 35.6 °F 24% 30.18 in 10.0 mi SSE 3.5 mph - N/A   Clear
2:35 PM 75.2 °F - 35.6 °F 24% 30.17 in 10.0 mi SSE 4.6 mph - N/A   Clear
2:55 PM 77.0 °F - 35.6 °F 22% 30.16 in 10.0 mi Calm Calm - N/A   Clear
3:15 PM 75.2 °F - 35.6 °F 24% 30.16 in 10.0 mi Calm Calm - N/A   Clear
3:35 PM 75.2 °F - 35.6 °F 24% 30.16 in 10.0 mi Calm Calm - N/A   Clear
3:55 PM 75.2 °F - 35.6 °F 24% 30.16 in 10.0 mi SSE 3.5 mph - N/A   Clear
4:15 PM 73.4 °F - 35.6 °F 25% 30.16 in 10.0 mi Calm Calm - N/A   Clear
4:35 PM 71.6 °F - 41.0 °F 33% 30.15 in 10.0 mi SE 3.5 mph - N/A   Clear
4:55 PM 71.6 °F - 41.0 °F 33% 30.16 in 10.0 mi SSE 4.6 mph - N/A   Clear
5:15 PM 69.8 °F - 42.8 °F 38% 30.16 in 10.0 mi SE 4.6 mph - N/A   Clear
5:35 PM 68.0 °F - 42.8 °F 40% 30.16 in 10.0 mi Calm Calm - N/A   Clear
5:55 PM 66.2 °F - 46.4 °F 49% 30.17 in 10.0 mi SE 5.8 mph - N/A   Clear
6:15 PM 62.6 °F - 50.0 °F 63% 30.18 in 10.0 mi SSE 5.8 mph - N/A   Clear
6:35 PM 60.8 °F - 51.8 °F 72% 30.19 in 10.0 mi SSE 5.8 mph - N/A   Clear
6:55 PM 60.8 °F - 53.6 °F 77% 30.19 in 10.0 mi SSE 5.8 mph - N/A   Clear
7:15 PM 60.8 °F - 53.6 °F 77% 30.20 in 10.0 mi SSE 5.8 mph - N/A   Clear
7:35 PM 59.0 °F - 53.6 °F 82% 30.20 in 10.0 mi SSE 5.8 mph - N/A   Clear
7:55 PM 59.0 °F - 53.6 °F 82% 30.21 in 10.0 mi SSE 4.6 mph - N/A   Clear
8:15 PM 59.0 °F - 53.6 °F 82% 30.21 in 10.0 mi SSE 3.5 mph - N/A   Clear
8:35 PM 59.0 °F - 53.6 °F 82% 30.21 in 10.0 mi Calm Calm - N/A   Clear
9:15 PM 55.4 °F - 53.6 °F 94% 30.20 in 10.0 mi Calm Calm - N/A   Clear
9:35 PM 55.4 °F - 53.6 °F 94% 30.20 in 10.0 mi Calm Calm - N/A   Clear
9:55 PM 55.4 °F - 53.6 °F 94% 30.20 in 10.0 mi Calm Calm - N/A   Clear
10:15 PM 53.6 °F - 51.8 °F 94% 30.19 in 10.0 mi Calm Calm - N/A   Clear
10:35 PM 55.4 °F - 53.6 °F 94% 30.20 in 10.0 mi Calm Calm - N/A   Clear
10:55 PM 53.6 °F - 53.6 °F 100% 30.20 in 10.0 mi Calm Calm - N/A   Clear
11:15 PM 53.6 °F - 53.6 °F 100% 30.20 in 10.0 mi Calm Calm - N/A   Clear
11:35 PM 53.6 °F - 53.6 °F 100% 30.20 in 10.0 mi Calm Calm - N/A   Clear
11:55 PM 53.6 °F - 53.6 °F 100% 30.20 in 4.0 mi Calm Calm - N/A   Clear